This is the latest recevied weather packets stored in our database for station/object W0SS-13. If no packets are shown the sender has not sent any weather packets the latest 10 day(s).
| Time | Temp. | Humidity | Pressure | Rain* | Wind** | Luminosity | Snow |
|---|---|---|---|---|---|---|---|
| 1778182994 | 18.89° C | 50% | 1013.9 hPa | 0 mm | - | 218 W/m² | - |
| 1778182691 | 18.89° C | 50% | 1014.4 hPa | 0 mm | - | 663 W/m² | - |
| 1778182389 | 18.33° C | 50% | 1014.4 hPa | 0 mm | - | 814 W/m² | - |
| 1778182084 | 18.33° C | 51% | 1014.2 hPa | 0 mm | - | 924 W/m² | - |
| 1778181781 | 18.33° C | 52% | 1014.1 hPa | 0 mm | - | 738 W/m² | - |
| 1778181477 | 18.33° C | 52% | 1014.4 hPa | 0 mm | - | 800 W/m² | - |
| 1778181174 | 18.33° C | 52% | 1014.3 hPa | 0 mm | - | 816 W/m² | - |
| 1778180870 | 17.78° C | 52% | 1014.7 hPa | 0 mm | - | 905 W/m² | - |
| 1778180569 | 17.78° C | 52% | 1014.6 hPa | 0 mm | - | 852 W/m² | - |
| 1778180267 | 17.78° C | 51% | 1014.6 hPa | 0 mm | - | 669 W/m² | - |
| 1778179964 | 17.78° C | 52% | 1014.6 hPa | 0 mm | - | 845 W/m² | - |
| 1778179661 | 17.78° C | 51% | 1014.7 hPa | 0 mm | - | 839 W/m² | - |
| 1778179359 | 17.78° C | 53% | 1015.1 hPa | 0 mm | - | 871 W/m² | - |
| 1778179056 | 17.78° C | 56% | 1015.1 hPa | 0 mm | - | 623 W/m² | - |
| 1778178753 | 17.78° C | 53% | 1015.2 hPa | 0 mm | - | 944 W/m² | - |
| 1778178450 | 17.22° C | 53% | 1015.4 hPa | 0 mm | - | 866 W/m² | - |
| 1778178144 | 17.22° C | 53% | 1015.4 hPa | 0 mm | - | 911 W/m² | - |
| 1778177842 | 17.22° C | 54% | 1015.4 hPa | 0 mm | - | 674 W/m² | - |
| 1778177538 | 17.78° C | 54% | 1015.5 hPa | 0 mm | - | 993 W/m² | - |
| 1778177235 | 17.78° C | 54% | 1015.8 hPa | 0 mm | - | 920 W/m² | - |
| 1778176932 | 16.67° C | 56% | 1015.6 hPa | 0 mm | - | 930 W/m² | - |
| 1778176628 | 16.67° C | 58% | 1015.8 hPa | 0 mm | - | 228 W/m² | - |
| 1778176325 | 16.67° C | 55% | 1015.8 hPa | 0 mm | - | 274 W/m² | - |
| 1778176022 | 16.11° C | 55% | 1015.9 hPa | 0 mm | - | 960 W/m² | - |
| 1778175720 | 16.67° C | 56% | 1016 hPa | 0 mm | - | 1003 W/m² | - |
* Rain latest hour (hover to see other rain measurements)
** Current wind speed in m/s (hover to see current wind gust speed)